Hourly Data Report for October 02, 2013

All times are specified in Local Standard Time (LST). Add 1 hour to adjust for Daylight Saving Time where and when it is observed.

CHARLOTTETOWN A
PRINCE EDWARD ISLAND

46°17'21.000" N
63°07'09.000" W
48.50 m
8300301
71706
YYG

Download Data

Hourly Data (October 2013)
Hourly Data Report for October 2, 2013
Temp Definition
°C
Dew Point Temp Definition
°C
Rel Hum Definition
%
Wind Dir Definition
10's deg

Wind Spd Definition
km/h
Visibility Definition
km
Stn Press Definition
kPa
Hmdx Definition


Wind Chill Definition


Weather Definition


TIME
00:00 Legend Double Dagger 11.8 11.0 95 31 6 24.1 100.16     LegendNANA
01:00 Legend Double Dagger 11.4 10.6 95 33 4 24.1 100.12     LegendNANA
02:00 Legend Double Dagger 11.8 10.7 93 28 10 24.1 100.10     Mostly Cloudy
03:00 Legend Double Dagger 11.1 10.5 96 27 8 24.1 100.07     LegendNANA
04:00 Legend Double Dagger 11.3 11.2 99 28 6 2.4 100.07     Fog
05:00 Legend Double Dagger 11.0 10.9 99 27 8 0.8 100.06     Fog
06:00 Legend Double Dagger 10.2 10.2 100 26 4 0.4 100.07     Fog
07:00 Legend Double Dagger 9.1 9.1 100 23 3 0.6 100.10     Fog
08:00 Legend Double Dagger 11.6 11.0 96 25 10 24.1 100.09     Mainly Clear
09:00 Legend Double Dagger 12.7 11.9 95 23 9 24.1 100.06     LegendNANA
10:00 Legend Double Dagger 15.6 13.1 85 21 11 24.1 100.04     LegendNANA
11:00 Legend Double Dagger 17.2 13.2 77 22 9 24.1 99.92     Mainly Clear
12:00 Legend Double Dagger 17.9 13.3 74 21 19 24.1 99.84     LegendNANA
13:00 Legend Double Dagger 18.7 13.4 71 21 22 24.1 99.76     LegendNANA
14:00 Legend Double Dagger 20.4 13.5 64 23 22 24.1 99.68     Clear
15:00 Legend Double Dagger 21.1 14.8 67 23 20 24.1 99.62 25   LegendNANA
16:00 Legend Double Dagger 20.8 14.5 67 24 19 24.1 99.60     LegendNANA
17:00 Legend Double Dagger 19.7 13.7 68 24 26 24.1 99.59     Mainly Clear
18:00 Legend Double Dagger 18.3 13.7 74 24 28 24.1 99.61     LegendNANA
19:00 Legend Double Dagger 17.1 13.7 80 25 17 24.1 99.65     LegendNANA
20:00 Legend Double Dagger 16.0 13.7 86 25 14 24.1 99.71     Mainly Clear
21:00 Legend Double Dagger 16.1 13.1 82 28 9 24.1 99.77     LegendNANA
22:00 Legend Double Dagger 15.3 13.2 87 25 13 24.1 99.78     LegendNANA
23:00 Legend Double Dagger 14.5 12.9 90 23 16 24.1 99.79     Mostly Cloudy

Notes on Data Quality.

Legend

  • E = Estimated
  • M = Missing
  • NA = Not Available
  • ‡ = Partner data that is not subject to review by the National Climate Archives
Date modified: